,,Stat6,,Stat2,,Stat8,,Stat9,,Stat10,,Wind1,,Wind1,
time,status,PA1M_AVG,status,PR1M_SUM,status,RH1M_AVG,status,SR1M_AVG,status,TA1M_AVG,status,W1dAve1m,status,W1sAve1m,
2004-07-08, 00:00:00,VALID,920.589,VALID,0,VALID,100,VALID,0.101885,VALID,17.7378,VALID,22,VALID,1.60173,
2004-07-08, 00:01:00,VALID,920.58,VALID,0,VALID,100,VALID,0.0849042,VALID,17.7281,VALID,15,VALID,1.52172,
2004-07-08, 00:02:00,VALID,920.569,VALID,0,VALID,100,VALID,0.0849042,VALID,17.7445,VALID,12,VALID,0.800977,
2004-07-08, 00:03:00,VALID,920.555,VALID,0,VALID,100,VALID,0.0849042,VALID,17.7445,VALID,8,VALID,0.849888,
2004-07-08, 00:04:00,VALID,920.551,VALID,0,VALID,100,VALID,0.0849042,VALID,17.7314,VALID,336,VALID,1.48209,
2004-07-08, 00:05:00,VALID,920.538,VALID,0,VALID,100,VALID,0.0509425,VALID,17.7159,VALID,8,VALID,1.14784,
2004-07-08, 00:06:00,VALID,920.541,VALID,0,VALID,100,VALID,0.0679233,VALID,17.7159,VALID,357,VALID,1.32266,
2004-07-08, 00:07:00,VALID,920.529,VALID,0,VALID,100,VALID,0,VALID,17.7133,VALID,12,VALID,0.971058,
2004-07-08, 00:08:00,VALID,920.518,VALID,0,VALID,100,VALID,-0.0339617,VALID,17.7297,VALID,20,VALID,1.19122,
2004-07-08, 00:09:00,VALID,920.517,VALID,0,VALID,100,VALID,0,VALID,17.7428,VALID,2,VALID,0.736049,
2004-07-08, 00:10:00,VALID,920.495,VALID,0,VALID,100,VALID,0,VALID,17.7262,VALID,14,VALID,1.00817,
2004-07-08, 00:11:00,VALID,920.473,VALID,0,VALID,100,VALID,-0.0339617,VALID,17.74,VALID,353,VALID,0.74638,
2004-07-08, 00:12:00,VALID,920.449,VALID,0,VALID,100,VALID,-0.0339617,VALID,17.7136,VALID,357,VALID,1.35194,
2004-07-08, 00:13:00,VALID,920.431,VALID,0,VALID,100,VALID,-0.0169808,VALID,17.7071,VALID,3,VALID,1.53981,
2004-07-08, 00:14:00,VALID,920.413,VALID,0,VALID,100,VALID,-0.0509425,VALID,17.7078,VALID,11,VALID,1.71294,
2004-07-08, 00:15:00,VALID,920.406,VALID,0,VALID,100,VALID,-0.0679233,VALID,17.7048,VALID,13,VALID,1.50994,
2004-07-08, 00:16:00,VALID,920.411,VALID,0,VALID,100,VALID,-0.0169808,VALID,17.708,VALID,357,VALID,1.49102,
2004-07-08, 00:17:00,VALID,920.388,VALID,0,VALID,100,VALID,-0.0169808,VALID,17.675,VALID,1,VALID,1.52616,
2004-07-08, 00:18:00,VALID,920.393,VALID,0,VALID,100,VALID,-0.0679233,VALID,17.6817,VALID,12,VALID,1.59557,
2004-07-08, 00:19:00,VALID,920.371,VALID,0,VALID,100,VALID,-0.0849042,VALID,17.6918,VALID,3,VALID,1.88151,
2004-07-08, 00:20:00,VALID,920.346,VALID,0,VALID,100,VALID,-0.0339617,VALID,17.6649,VALID,15,VALID,2.66997,
2004-07-08, 00:21:00,VALID,920.352,VALID,0,VALID,100,VALID,-0.0339617,VALID,17.6432,VALID,7,VALID,2.42653,
2004-07-08, 00:22:00,VALID,920.339,VALID,0,VALID,100,VALID,0,VALID,17.6292,VALID,348,VALID,1.91559,
2004-07-08, 00:23:00,VALID,920.331,VALID,0,VALID,100,VALID,0.0169808,VALID,17.6225,VALID,2,VALID,1.65501,
2004-07-08, 00:24:00,VALID,920.323,VALID,0,VALID,100,VALID,0.101885,VALID,17.6227,VALID,345,VALID,1.68025,
2004-07-08, 00:25:00,VALID,920.322,VALID,0,VALID,100,VALID,0.0509425,VALID,17.59,VALID,336,VALID,1.71467,
2004-07-08, 00:26:00,VALID,920.317,VALID,0,VALID,100,VALID,0,VALID,17.567,VALID,345,VALID,1.45379,
2004-07-08, 00:27:00,VALID,920.311,VALID,0,VALID,100,VALID,0.0849042,VALID,17.5732,VALID,343,VALID,1.5767,
2004-07-08, 00:28:00,VALID,920.324,VALID,0,VALID,100,VALID,0.0339617,VALID,17.5706,VALID,344,VALID,0.998798,
2004-07-08, 00:29:00,VALID,920.333,VALID,0,VALID,100,VALID,0.0339617,VALID,17.5773,VALID,333,VALID,1.00515,
2004-07-08, 00:30:00,VALID,920.344,VALID,0,VALID,100,VALID,0.0679233,VALID,17.5868,VALID,360,VALID,1.26842,
2004-07-08, 00:31:00,VALID,920.334,VALID,0,VALID,100,VALID,0.0339617,VALID,17.5965,VALID,338,VALID,1.05469,
2004-07-08, 00:32:00,VALID,920.309,VALID,0,VALID,100,VALID,0.0169808,VALID,17.5902,VALID,13,VALID,1.98212,
2004-07-08, 00:33:00,VALID,920.322,VALID,0,VALID,100,VALID,0.0169808,VALID,17.6034,VALID,3,VALID,1.01162,
2004-07-08, 00:34:00,VALID,920.306,VALID,0,VALID,100,VALID,0.0169808,VALID,17.632,VALID,4,VALID,0.678544,
2004-07-08, 00:35:00,VALID,920.27,VALID,0,VALID,100,VALID,0.0339617,VALID,17.6352,VALID,11,VALID,1.79375,
2004-07-08, 00:36:00,VALID,920.271,VALID,0,VALID,100,VALID,0.0849042,VALID,17.6057,VALID,341,VALID,1.62344,
2004-07-08, 00:37:00,VALID,920.249,VALID,0,VALID,100,VALID,-0.0679233,VALID,17.6043,VALID,306,VALID,0.478693,
2004-07-08, 00:38:00,VALID,920.25,VALID,0,VALID,100,VALID,-0.0509425,VALID,17.6204,VALID,355,VALID,0.78869,
2004-07-08, 00:39:00,VALID,920.233,VALID,0,VALID,100,VALID,-0.0509425,VALID,17.6202,VALID,350,VALID,1.32645,
2004-07-08, 00:40:00,VALID,920.251,VALID,0,VALID,100,VALID,-0.0849042,VALID,17.6079,VALID,354,VALID,1.2258,
2004-07-08, 00:41:00,VALID,920.256,VALID,0,VALID,100,VALID,-0.0679233,VALID,17.6211,VALID,5,VALID,1.24927,
2004-07-08, 00:42:00,VALID,920.252,VALID,0,VALID,100,VALID,-0.0339617,VALID,17.6268,VALID,9,VALID,1.08358,
2004-07-08, 00:43:00,VALID,920.25,VALID,0,VALID,100,VALID,-0.0679233,VALID,17.6236,VALID,4,VALID,1.40396,
2004-07-08, 00:44:00,VALID,920.26,VALID,0,VALID,100,VALID,-0.0679233,VALID,17.6268,VALID,359,VALID,1.06711,
2004-07-08, 00:45:00,VALID,920.242,VALID,0,VALID,100,VALID,-0.0509425,VALID,17.6238,VALID,353,VALID,1.22028,
2004-07-08, 00:46:00,VALID,920.255,VALID,0,VALID,100,VALID,-0.0339617,VALID,17.6204,VALID,11,VALID,1.01172,
2004-07-08, 00:47:00,VALID,920.247,VALID,0,VALID,100,VALID,-0.0849042,VALID,17.6368,VALID,358,VALID,1.09512,
2004-07-08, 00:48:00,VALID,920.248,VALID,0,VALID,100,VALID,-0.101885,VALID,17.6238,VALID,331,VALID,0.913885,
2004-07-08, 00:49:00,VALID,920.247,VALID,0,VALID,100,VALID,-0.0679233,VALID,17.6241,VALID,299,VALID,0.867551,
2004-07-08, 00:50:00,VALID,920.248,VALID,0.2,VALID,100,VALID,-0.0849042,VALID,17.6368,VALID,323,VALID,0.767721,
2004-07-08, 00:51:00,VALID,920.234,VALID,0,VALID,100,VALID,-0.0679233,VALID,17.6271,VALID,330,VALID,0.45348,
2004-07-08, 00:52:00,VALID,920.217,VALID,0,VALID,100,VALID,-0.101885,VALID,17.6243,VALID,330,VALID,0.226381,
2004-07-08, 00:53:00,VALID,920.178,VALID,0,VALID,100,VALID,-0.0849042,VALID,17.6137,VALID,334,VALID,0.534722,
2004-07-08, 00:54:00,VALID,920.154,VALID,0,VALID,100,VALID,-0.0509425,VALID,17.6404,VALID,6,VALID,0.952934,
2004-07-08, 00:55:00,VALID,920.127,VALID,0,VALID,100,VALID,-0.0339617,VALID,17.6402,VALID,13,VALID,1.54836,
2004-07-08, 00:56:00,VALID,920.117,VALID,0,VALID,100,VALID,-0.0339617,VALID,17.6464,VALID,11,VALID,1.5651,
2004-07-08, 00:57:00,VALID,920.1,VALID,0,VALID,100,VALID,-0.0849042,VALID,17.666,VALID,26,VALID,1.34048,
2004-07-08, 00:58:00,VALID,920.107,VALID,0,VALID,100,VALID,-0.0679233,VALID,17.6757,VALID,11,VALID,1.04506,
2004-07-08, 00:59:00,VALID,920.098,VALID,0,VALID,100,VALID,-0.0169808,VALID,17.6949,VALID,5,VALID,0.549964,
2004-07-08, 01:00:00,VALID,920.104,VALID,0,VALID,100,VALID,-0.0849042,VALID,17.6918,VALID,314,VALID,0.339026,
2004-07-08, 01:01:00,VALID,920.076,VALID,0,VALID,100,VALID,-0.0509425,VALID,17.6819,VALID,357,VALID,0.728743,
2004-07-08, 01:02:00,VALID,920.063,VALID,0,VALID,100,VALID,-0.0339617,VALID,17.6654,VALID,27,VALID,1.15777,
2004-07-08, 01:03:00,VALID,920.064,VALID,0,VALID,100,VALID,-0.0339617,VALID,17.6783,VALID,39,VALID,0.676781,
2004-07-08, 01:04:00,VALID,920.066,VALID,0,VALID,100,VALID,-0.0509425,VALID,17.6849,VALID,42,VALID,0.661519,
2004-07-08, 01:05:00,VALID,920.065,VALID,0,VALID,100,VALID,-0.0849042,VALID,17.6981,VALID,31,VALID,0.370236,
2004-07-08, 01:06:00,VALID,920.071,VALID,0,VALID,100,VALID,-0.101885,VALID,17.6983,VALID,7,VALID,0.508984,
2004-07-08, 01:07:00,VALID,920.041,VALID,0,VALID,100,VALID,-0.0339617,VALID,17.7084,VALID,11,VALID,0.685369,
2004-07-08, 01:08:00,VALID,920.034,VALID,0,VALID,100,VALID,-0.0849042,VALID,17.7078,VALID,22,VALID,0.852307,
2004-07-08, 01:09:00,VALID,920.042,VALID,0,VALID,100,VALID,-0.0679233,VALID,17.7174,VALID,33,VALID,0.647693,
2004-07-08, 01:10:00,VALID,920.03,VALID,0,VALID,100,VALID,-0.0339617,VALID,17.7138,VALID,22,VALID,0.491071,
2004-07-08, 01:11:00,VALID,920.033,VALID,0,VALID,100,VALID,-0.101885,VALID,17.7174,VALID,11,VALID,0.375868,
2004-07-08, 01:12:00,VALID,920.028,VALID,0,VALID,100,VALID,-0.0849042,VALID,17.7177,VALID,11,VALID,0.0406605,
2004-07-08, 01:13:00,VALID,920.036,VALID,0,VALID,100,VALID,-0.0679233,VALID,17.7172,VALID,9,VALID,0.709847,
2004-07-08, 01:14:00,VALID,920.026,VALID,0,VALID,100,VALID,-0.0509425,VALID,17.7172,VALID,359,VALID,0.732195,
2004-07-08, 01:15:00,VALID,920.006,VALID,0,VALID,100,VALID,-0.0679233,VALID,17.7205,VALID,9,VALID,0.82984,
2004-07-08, 01:16:00,VALID,919.998,VALID,0,VALID,100,VALID,-0.0679233,VALID,17.7366,VALID,11,VALID,0.201451,
2004-07-08, 01:17:00,VALID,919.994,VALID,0,VALID,100,VALID,-0.0509425,VALID,17.7523,VALID,11,VALID,0.158798,
2004-07-08, 01:18:00,VALID,919.986,VALID,0,VALID,100,VALID,-0.0849042,VALID,17.7758,VALID,5,VALID,0.418818,
2004-07-08, 01:19:00,VALID,919.969,VALID,0,VALID,100,VALID,-0.0849042,VALID,17.7596,VALID,350,VALID,0.206836,
2004-07-08, 01:20:00,VALID,919.931,VALID,0,VALID,99.9819,VALID,-0.0679233,VALID,17.7426,VALID,348,VALID,0.314986,
2004-07-08, 01:21:00,VALID,919.917,VALID,0,VALID,99.9341,VALID,-0.0339617,VALID,17.7396,VALID,359,VALID,0.329297,
2004-07-08, 01:22:00,VALID,919.91,VALID,0,VALID,99.9074,VALID,-0.0169808,VALID,17.7527,VALID,47,VALID,0.49359,
2004-07-08, 01:23:00,VALID,919.902,VALID,0,VALID,99.8578,VALID,-0.0339617,VALID,17.7659,VALID,29,VALID,0.298651,
2004-07-08, 01:24:00,VALID,919.898,VALID,0,VALID,99.8197,VALID,-0.0509425,VALID,17.7622,VALID,29,VALID,0.0598366,
2004-07-08, 01:25:00,VALID,919.874,VALID,0,VALID,99.8159,VALID,-0.0509425,VALID,17.7617,VALID,29,VALID,0,
2004-07-08, 01:26:00,VALID,919.854,VALID,0,VALID,99.7815,VALID,0,VALID,17.7622,VALID,29,VALID,0,
2004-07-08, 01:27:00,VALID,919.832,VALID,0,VALID,99.7981,VALID,-0.0679233,VALID,17.7497,VALID,29,VALID,0,
2004-07-08, 01:28:00,VALID,919.821,VALID,0,VALID,99.8349,VALID,-0.0339617,VALID,17.7622,VALID,29,VALID,0,
2004-07-08, 01:29:00,VALID,919.816,VALID,0,VALID,99.9189,VALID,-0.0509425,VALID,17.7919,VALID,29,VALID,0,
2004-07-08, 01:30:00,VALID,919.806,VALID,0,VALID,99.9405,VALID,-0.0849042,VALID,17.8083,VALID,29,VALID,0,
2004-07-08, 01:31:00,VALID,919.815,VALID,0,VALID,99.9596,VALID,-0.0679233,VALID,17.8147,VALID,29,VALID,0,
2004-07-08, 01:32:00,VALID,919.813,VALID,0,VALID,99.9682,VALID,-0.0509425,VALID,17.8007,VALID,29,VALID,0,
2004-07-08, 01:33:00,VALID,919.808,VALID,0,VALID,100,VALID,-0.0679233,VALID,17.8106,VALID,29,VALID,0.0494792,
2004-07-08, 01:34:00,VALID,919.798,VALID,0,VALID,99.9954,VALID,-0.0679233,VALID,17.8048,VALID,29,VALID,0.19375,
2004-07-08, 01:35:00,VALID,919.798,VALID,0,VALID,99.9352,VALID,-0.0509425,VALID,17.782,VALID,356,VALID,0.379092,
2004-07-08, 01:36:00,VALID,919.792,VALID,0,VALID,99.8057,VALID,-0.0679233,VALID,17.7525,VALID,316,VALID,0.382617,
2004-07-08, 01:37:00,VALID,919.791,VALID,0,VALID,99.7993,VALID,-0.0509425,VALID,17.7562,VALID,314,VALID,0.181784,
2004-07-08, 01:38:00,VALID,919.784,VALID,0,VALID,99.8362,VALID,-0.0339617,VALID,17.7523,VALID,312,VALID,0.326265,
2004-07-08, 01:39:00,VALID,919.778,VALID,0,VALID,99.8515,VALID,-0.0339617,VALID,17.7624,VALID,299,VALID,0.352108,
2004-07-08, 01:40:00,VALID,919.764,VALID,0,VALID,99.7777,VALID,-0.0339617,VALID,17.7467,VALID,299,VALID,0.321265,
2004-07-08, 01:41:00,VALID,919.729,VALID,0,VALID,99.8019,VALID,-0.0679233,VALID,17.7269,VALID,299,VALID,0.0906613,
2004-07-08, 01:42:00,VALID,919.699,VALID,0,VALID,99.7637,VALID,-0.0339617,VALID,17.7144,VALID,299,VALID,0.0672637,
2004-07-08, 01:43:00,VALID,919.682,VALID,0,VALID,99.7943,VALID,-0.0339617,VALID,17.7075,VALID,299,VALID,0.068784,
2004-07-08, 01:44:00,VALID,919.664,VALID,0,VALID,99.807,VALID,-0.0339617,VALID,17.6976,VALID,299,VALID,0.186285,
2004-07-08, 01:45:00,VALID,919.637,VALID,0,VALID,99.7892,VALID,-0.0339617,VALID,17.7009,VALID,299,VALID,0.184375,
2004-07-08, 01:46:00,VALID,919.61,VALID,0,VALID,99.7955,VALID,-0.0339617,VALID,17.6979,VALID,299,VALID,0.135476,
2004-07-08, 01:47:00,VALID,919.588,VALID,0,VALID,99.8451,VALID,0,VALID,17.7105,VALID,299,VALID,0,
2004-07-08, 01:48:00,VALID,919.575,VALID,0,VALID,99.8833,VALID,-0.0169808,VALID,17.7202,VALID,299,VALID,0,
2004-07-08, 01:49:00,VALID,919.564,VALID,0,VALID,99.924,VALID,-0.0679233,VALID,17.7304,VALID,299,VALID,0,
2004-07-08, 01:50:00,VALID,919.55,VALID,0,VALID,99.9608,VALID,-0.0509425,VALID,17.7467,VALID,299,VALID,0,
2004-07-08, 01:51:00,VALID,919.527,VALID,0,VALID,99.9819,VALID,0,VALID,17.7366,VALID,299,VALID,0,
2004-07-08, 01:52:00,VALID,919.497,VALID,0,VALID,100,VALID,0.0509425,VALID,17.7456,VALID,299,VALID,0,
2004-07-08, 01:53:00,VALID,919.474,VALID,0,VALID,100,VALID,0.0679233,VALID,17.7419,VALID,299,VALID,0,
2004-07-08, 01:54:00,VALID,919.441,VALID,0,VALID,100,VALID,0.0509425,VALID,17.7383,VALID,299,VALID,0.0735829,
2004-07-08, 01:55:00,VALID,919.428,VALID,0,VALID,100,VALID,0.0509425,VALID,17.7378,VALID,299,VALID,0.124455,
2004-07-08, 01:56:00,VALID,919.43,VALID,0,VALID,100,VALID,0.0849042,VALID,17.7355,VALID,299,VALID,0.068407,
2004-07-08, 01:57:00,VALID,919.435,VALID,0,VALID,100,VALID,0.0679233,VALID,17.7228,VALID,299,VALID,0.081032,
2004-07-08, 01:58:00,VALID,919.41,VALID,0,VALID,100,VALID,0.0849042,VALID,17.7062,VALID,299,VALID,0,
2004-07-08, 01:59:00,VALID,919.376,VALID,0,VALID,100,VALID,0.0849042,VALID,17.6963,VALID,299,VALID,0.287157,
2004-07-08, 02:00:00,VALID,919.341,VALID,0,VALID,100,VALID,0.0679233,VALID,17.6797,VALID,300,VALID,0.571039,
2004-07-08, 02:01:00,VALID,919.319,VALID,0,VALID,100,VALID,0.101885,VALID,17.6707,VALID,94,VALID,0.577009,
2004-07-08, 02:02:00,VALID,919.308,VALID,0,VALID,100,VALID,0.0679233,VALID,17.6513,VALID,97,VALID,0.509375,
2004-07-08, 02:03:00,VALID,919.286,VALID,0,VALID,99.9583,VALID,0.0679233,VALID,17.655,VALID,97,VALID,0.428925,
2004-07-08, 02:04:00,VALID,919.272,VALID,0,VALID,99.8934,VALID,0.0509425,VALID,17.6417,VALID,90,VALID,0.487909,
2004-07-08, 02:05:00,VALID,919.248,VALID,0,VALID,99.9252,VALID,0.0169808,VALID,17.6582,VALID,75,VALID,0.531432,
2004-07-08, 02:06:00,VALID,919.234,VALID,0,VALID,99.9786,VALID,0.0509425,VALID,17.6806,VALID,75,VALID,0.454327,
2004-07-08, 02:07:00,VALID,919.233,VALID,0,VALID,99.9644,VALID,0.0169808,VALID,17.6843,VALID,75,VALID,0.464311,
2004-07-08, 02:08:00,VALID,919.231,VALID,0,VALID,99.8947,VALID,0.0679233,VALID,17.6776,VALID,75,VALID,0.385938,
2004-07-08, 02:09:00,VALID,919.239,VALID,0,VALID,99.8858,VALID,0.0849042,VALID,17.6513,VALID,75,VALID,0.252486,
2004-07-08, 02:10:00,VALID,919.217,VALID,0,VALID,99.8845,VALID,0.0339617,VALID,17.6285,VALID,75,VALID,0.190972,
2004-07-08, 02:11:00,VALID,919.222,VALID,0,VALID,99.9341,VALID,0.0679233,VALID,17.6255,VALID,75,VALID,0.0967685,
2004-07-08, 02:12:00,VALID,919.227,VALID,0,VALID,100,VALID,0.0509425,VALID,17.6354,VALID,75,VALID,0,
2004-07-08, 02:13:00,VALID,919.221,VALID,0,VALID,100,VALID,0.101885,VALID,17.635,VALID,75,VALID,0,
2004-07-08, 02:14:00,VALID,919.208,VALID,0,VALID,100,VALID,0.0509425,VALID,17.6322,VALID,75,VALID,0.154762,
2004-07-08, 02:15:00,VALID,919.195,VALID,0,VALID,100,VALID,0.0509425,VALID,17.6455,VALID,75,VALID,0.310369,
2004-07-08, 02:16:00,VALID,919.193,VALID,0,VALID,100,VALID,0.0679233,VALID,17.6453,VALID,75,VALID,0.30888,
2004-07-08, 02:17:00,VALID,919.177,VALID,0,VALID,100,VALID,0.0849042,VALID,17.629,VALID,75,VALID,0.086128,
2004-07-08, 02:18:00,VALID,919.167,VALID,0,VALID,100,VALID,0.0509425,VALID,17.6257,VALID,75,VALID,0.0179869,
2004-07-08, 02:19:00,VALID,919.15,VALID,0,VALID,100,VALID,0.0509425,VALID,17.6161,VALID,75,VALID,0.282552,
2004-07-08, 02:20:00,VALID,919.151,VALID,0,VALID,100,VALID,0.0339617,VALID,17.6098,VALID,75,VALID,0.218564,
2004-07-08, 02:21:00,VALID,919.132,VALID,0,VALID,100,VALID,0.0169808,VALID,17.6001,VALID,75,VALID,0.0838068,
2004-07-08, 02:22:00,VALID,919.115,VALID,0,VALID,100,VALID,-0.0339617,VALID,17.5657,VALID,75,VALID,0.0572266,
2004-07-08, 02:23:00,VALID,919.095,VALID,0,VALID,100,VALID,-0.0169808,VALID,17.5464,VALID,75,VALID,0.121185,
2004-07-08, 02:24:00,VALID,919.075,VALID,0,VALID,100,VALID,0,VALID,17.5429,VALID,75,VALID,0.0916016,
2004-07-08, 02:25:00,VALID,919.067,VALID,0,VALID,100,VALID,0,VALID,17.5462,VALID,75,VALID,0.122954,
2004-07-08, 02:26:00,VALID,919.051,VALID,0,VALID,100,VALID,-0.0169808,VALID,17.5399,VALID,75,VALID,0.236151,
2004-07-08, 02:27:00,VALID,919.039,VALID,0,VALID,100,VALID,-0.0339617,VALID,17.5268,VALID,75,VALID,0.566106,
2004-07-08, 02:28:00,VALID,919.015,VALID,0,VALID,100,VALID,-0.0169808,VALID,17.498,VALID,75,VALID,0.755952,
2004-07-08, 02:29:00,VALID,919,VALID,0,VALID,100,VALID,-0.0339617,VALID,17.495,VALID,75,VALID,0.817773,
2004-07-08, 02:30:00,VALID,918.991,VALID,0,VALID,100,VALID,-0.0169808,VALID,17.4749,VALID,75,VALID,0.638021,
2004-07-08, 02:31:00,VALID,918.99,VALID,0,VALID,100,VALID,-0.0509425,VALID,17.465,VALID,75,VALID,0.739931,
2004-07-08, 02:32:00,VALID,918.977,VALID,0,VALID,100,VALID,0,VALID,17.4693,VALID,75,VALID,0.679688,
2004-07-08, 02:33:00,VALID,918.955,VALID,0,VALID,100,VALID,-0.0339617,VALID,17.4657,VALID,75,VALID,0.708008,
2004-07-08, 02:34:00,VALID,918.948,VALID,0,VALID,100,VALID,-0.0339617,VALID,17.4652,VALID,75,VALID,0.715451,
2004-07-08, 02:35:00,VALID,918.938,VALID,0,VALID,99.9964,VALID,-0.0339617,VALID,17.4857,VALID,79,VALID,0.736328,
2004-07-08, 02:36:00,VALID,918.934,VALID,0,VALID,99.9916,VALID,-0.0339617,VALID,17.5113,VALID,95,VALID,0.887767,
2004-07-08, 02:37:00,VALID,918.916,VALID,0,VALID,99.9708,VALID,-0.0679233,VALID,17.5274,VALID,98,VALID,0.921528,
2004-07-08, 02:38:00,VALID,918.914,VALID,0,VALID,99.8947,VALID,-0.0169808,VALID,17.5238,VALID,93,VALID,0.9109,
2004-07-08, 02:39:00,VALID,918.906,VALID,0,VALID,99.8616,VALID,0,VALID,17.5242,VALID,93,VALID,0.826215,
2004-07-08, 02:40:00,VALID,918.887,VALID,0,VALID,99.8273,VALID,-0.0339617,VALID,17.524,VALID,87,VALID,0.798828,
2004-07-08, 02:41:00,VALID,918.875,VALID,0,VALID,99.8197,VALID,-0.0509425,VALID,17.5076,VALID,93,VALID,0.776634,
2004-07-08, 02:42:00,VALID,918.877,VALID,0,VALID,99.8273,VALID,-0.0339617,VALID,17.5046,VALID,90,VALID,0.6875,
2004-07-08, 02:43:00,VALID,918.873,VALID,0,VALID,99.8884,VALID,-0.0509425,VALID,17.5083,VALID,98,VALID,0.820845,
2004-07-08, 02:44:00,VALID,918.873,VALID,0,VALID,99.9456,VALID,-0.0339617,VALID,17.4881,VALID,95,VALID,0.632431,
2004-07-08, 02:45:00,VALID,918.864,VALID,0,VALID,99.9875,VALID,-0.0509425,VALID,17.4883,VALID,93,VALID,0.592634,
2004-07-08, 02:46:00,VALID,918.859,VALID,0,VALID,100,VALID,0,VALID,17.4887,VALID,73,VALID,0.635476,
2004-07-08, 02:47:00,VALID,918.85,VALID,0,VALID,100,VALID,-0.0169808,VALID,17.4823,VALID,73,VALID,0.428686,
2004-07-08, 02:48:00,VALID,918.844,VALID,0,VALID,100,VALID,-0.0509425,VALID,17.456,VALID,73,VALID,0.227134,
2004-07-08, 02:49:00,VALID,918.829,VALID,0,VALID,100,VALID,-0.0169808,VALID,17.4599,VALID,97,VALID,0.685014,
2004-07-08, 02:50:00,VALID,918.832,VALID,0,VALID,100,VALID,-0.0339617,VALID,17.447,VALID,109,VALID,0.358789,
2004-07-08, 02:51:00,VALID,918.822,VALID,0,VALID,100,VALID,-0.0169808,VALID,17.4401,VALID,109,VALID,0.00742187,
2004-07-08, 02:52:00,VALID,918.809,VALID,0,VALID,100,VALID,0.101885,VALID,17.4325,VALID,109,VALID,0.270198,
2004-07-08, 02:53:00,VALID,918.805,VALID,0,VALID,100,VALID,0.0679233,VALID,17.4129,VALID,109,VALID,0.572409,
2004-07-08, 02:54:00,VALID,918.814,VALID,0,VALID,100,VALID,0.0509425,VALID,17.4164,VALID,122,VALID,0.599746,
2004-07-08, 02:55:00,VALID,918.794,VALID,0,VALID,100,VALID,0.0849042,VALID,17.4097,VALID,143,VALID,0.803013,
2004-07-08, 02:56:00,VALID,918.792,VALID,0,VALID,100,VALID,0.0679233,VALID,17.4196,VALID,143,VALID,0.632631,
2004-07-08, 02:57:00,VALID,918.779,VALID,0,VALID,100,VALID,0.0849042,VALID,17.4,VALID,133,VALID,0.862827,
2004-07-08, 02:58:00,VALID,918.781,VALID,0,VALID,100,VALID,0.0849042,VALID,17.4035,VALID,142,VALID,0.958147,
2004-07-08, 02:59:00,VALID,918.773,VALID,0,VALID,100,VALID,0.101885,VALID,17.4065,VALID,137,VALID,0.841332,
2004-07-08, 03:00:00,VALID,918.761,VALID,0,VALID,100,VALID,0.0849042,VALID,17.4061,VALID,123,VALID,0.859561,
2004-07-08, 03:01:00,VALID,918.754,VALID,0,VALID,100,VALID,0.0679233,VALID,17.4196,VALID,100,VALID,0.975852,
2004-07-08, 03:02:00,VALID,918.747,VALID,0,VALID,100,VALID,0.101885,VALID,17.4065,VALID,115,VALID,1.00645,
2004-07-08, 03:03:00,VALID,918.736,VALID,0,VALID,100,VALID,0.101885,VALID,17.3936,VALID,123,VALID,0.914807,
2004-07-08, 03:04:00,VALID,918.726,VALID,0,VALID,100,VALID,0.0679233,VALID,17.4003,VALID,140,VALID,0.682231,
2004-07-08, 03:05:00,VALID,918.725,VALID,0,VALID,100,VALID,0.101885,VALID,17.3964,VALID,136,VALID,0.833031,
2004-07-08, 03:06:00,VALID,918.717,VALID,0,VALID,100,VALID,0.0849042,VALID,17.4065,VALID,124,VALID,0.747275,
2004-07-08, 03:07:00,VALID,918.7,VALID,0,VALID,100,VALID,0,VALID,17.4016,VALID,115,VALID,0.924733,
2004-07-08, 03:08:00,VALID,918.683,VALID,0,VALID,100,VALID,0,VALID,17.3949,VALID,113,VALID,0.908249,
2004-07-08, 03:09:00,VALID,918.675,VALID,0,VALID,100,VALID,-0.0169808,VALID,17.3947,VALID,113,VALID,0.805069,
2004-07-08, 03:10:00,VALID,918.663,VALID,0,VALID,100,VALID,0,VALID,17.3882,VALID,113,VALID,1.04167,
2004-07-08, 03:11:00,VALID,918.654,VALID,0,VALID,100,VALID,0,VALID,17.3919,VALID,113,VALID,1.20985,
2004-07-08, 03:12:00,VALID,918.655,VALID,0,VALID,100,VALID,0.0169808,VALID,17.3846,VALID,115,VALID,1.12434,
2004-07-08, 03:13:00,VALID,918.652,VALID,0,VALID,100,VALID,-0.0169808,VALID,17.4044,VALID,123,VALID,1.0806,
2004-07-08, 03:14:00,VALID,918.654,VALID,0,VALID,100,VALID,-0.0169808,VALID,17.4274,VALID,127,VALID,1.06372,
2004-07-08, 03:15:00,VALID,918.656,VALID,0,VALID,100,VALID,0,VALID,17.4209,VALID,127,VALID,0.843006,
2004-07-08, 03:16:00,VALID,918.63,VALID,0,VALID,100,VALID,-0.0339617,VALID,17.4302,VALID,128,VALID,0.776708,
2004-07-08, 03:17:00,VALID,918.626,VALID,0,VALID,100,VALID,0,VALID,17.4336,VALID,131,VALID,0.734566,
2004-07-08, 03:18:00,VALID,918.608,VALID,0,VALID,100,VALID,0,VALID,17.43,VALID,132,VALID,0.753993,
2004-07-08, 03:19:00,VALID,918.587,VALID,0,VALID,100,VALID,0,VALID,17.4168,VALID,131,VALID,0.709666,
2004-07-08, 03:20:00,VALID,918.566,VALID,0,VALID,100,VALID,0.0339617,VALID,17.4237,VALID,109,VALID,0.490625,
2004-07-08, 03:21:00,VALID,918.538,VALID,0,VALID,100,VALID,-0.0339617,VALID,17.4209,VALID,105,VALID,0.329055,
2004-07-08, 03:22:00,VALID,918.501,VALID,0,VALID,100,VALID,0,VALID,17.4106,VALID,105,VALID,0.31994,
2004-07-08, 03:23:00,VALID,918.471,VALID,0,VALID,100,VALID,-0.0169808,VALID,17.4106,VALID,105,VALID,0.00218023,
2004-07-08, 03:24:00,VALID,918.443,VALID,0,VALID,100,VALID,0,VALID,17.4145,VALID,105,VALID,0,
2004-07-08, 03:25:00,VALID,918.432,VALID,0,VALID,100,VALID,0.0169808,VALID,17.4143,VALID,105,VALID,0,
2004-07-08, 03:26:00,VALID,918.403,VALID,0,VALID,100,VALID,0,VALID,17.3947,VALID,105,VALID,0,
2004-07-08, 03:27:00,VALID,918.409,VALID,0,VALID,100,VALID,-0.0169808,VALID,17.4016,VALID,105,VALID,0.071766,
2004-07-08, 03:28:00,VALID,918.403,VALID,0,VALID,100,VALID,0,VALID,17.379,VALID,102,VALID,0.48952,
2004-07-08, 03:29:00,VALID,918.399,VALID,0,VALID,100,VALID,-0.0169808,VALID,17.3435,VALID,75,VALID,0.592634,
2004-07-08, 03:30:00,VALID,918.389,VALID,0,VALID,100,VALID,-0.0509425,VALID,17.3172,VALID,67,VALID,0.654797,
2004-07-08, 03:31:00,VALID,918.389,VALID,0,VALID,100,VALID,-0.0169808,VALID,17.3047,VALID,64,VALID,0.638445,
2004-07-08, 03:32:00,VALID,918.38,VALID,0,VALID,100,VALID,0,VALID,17.2722,VALID,59,VALID,0.550694,
2004-07-08, 03:33:00,VALID,918.386,VALID,0,VALID,100,VALID,0,VALID,17.2497,VALID,59,VALID,0.421512,
2004-07-08, 03:34:00,VALID,918.4,VALID,0,VALID,100,VALID,0,VALID,17.2367,VALID,58,VALID,0.357922,
2004-07-08, 03:35:00,VALID,918.379,VALID,0,VALID,100,VALID,-0.0169808,VALID,17.2535,VALID,51,VALID,0.481105,
2004-07-08, 03:36:00,VALID,918.399,VALID,0,VALID,100,VALID,-0.0509425,VALID,17.2505,VALID,35,VALID,0.330788,
2004-07-08, 03:37:00,VALID,918.391,VALID,0,VALID,100,VALID,0,VALID,17.2436,VALID,35,VALID,0.356468,
2004-07-08, 03:38:00,VALID,918.398,VALID,0,VALID,100,VALID,0,VALID,17.237,VALID,35,VALID,0.228743,